Flight Briefing for CPX785

Departure Arrival
Tan Son Nhat International Airport (VVTS)
Click to view FAA NOTAMS
Incheon International Airport (RKSI)
Click to view FAA NOTAMS
Departure Time Arrival Time
N/A N/A
Aircraft Distance
B767-300BDSF 2216nm
Departure METAR Arrival METAR
VVTS 190800Z 18011KT 120V210 9999 SCT017 35/19 Q1008 NOSIG RKSI 190800Z 23008KT 9999 FEW025 10/05 Q1015 NOSIG
Suggested Route
TANOS1B PTH N500 AGSAM L625 ABVAR M646 POTIB Q11 DRAKE Q11 WP900 L4 LIPLO Y741 BOLUT B576 OLMEN OLMEN1P


View recent IFR Routes data
Notes



Charts and Procedures

Charts for VVTS
No chart available
Charts for RKSI
No chart available

Windy.com Weather Map